Location: Prague
(50.0830°N, 14.4670°E)
Time: 02:20:34
(UTC+02:00)

FO-29 - Pass Details

Date: 01 April 2023
Orbit: 799 x 1322 km, 98.5° (Epoch: 29 May)

Event Time Altitude Azimuth Distance (km) Brightness Sun altitude
Rises 04:10:28 0° 23° (NNE) 4,289 13.9 -22.7°
Reaches altitude 10° 04:14:44 10° 45° (NE) 3,252 13.3 -22.1°
Maximum altitude 04:18:55 16° 79° (E) 2,756 12.7 -21.6°
Drops below altitude 10° 04:22:55 10° 114° (ESE) 3,064 12.5 -21.1°
Sets 04:26:42 0° 135° (SE) 3,914 12.8 -20.6°
